sat.trackr.live / text

‹ back to catalog

STARLINK-31284

NORAD 59246 · 2024-049R

PAYLOAD ACTIVE UNKNOWN

§ Identity

Operator
Country
US
Launch date
2024-03-16
Launch site
AFETR
Launch vehicle
Mass (kg)
RCS (m²)

Purposes: comms

External: N2YO · Heavens-Above · Gunter

§ Orbital elements

Epoch: 2026-09-19T08:06:55.557792Z

Period
94.27 min
Inclination
43.0041°
Eccentricity
0.0001047
Mean motion
15.27576639 rev/d
Perigee alt
482.3 km
Apogee alt
483.8 km
Semi-major
6,861.2 km
B*
1.2479e-5
RAAN
129.7775°
Arg perigee
277.2006°
Mean anomaly
82.8727°
Rev number
14,201

§ Raw data

STARLINK-312841 59246U 24049R   26262.33814303  .00000081  00000+0  12479-4 0  99932 59246  43.0041 129.7775 0001047 277.2006  82.8727 15.27576639142017

JSON: /api/v1/satellites/59246 · /tle

For live sub-satellite position, see the globe view (requires WebGL).

§ Visibility from observer

Set your observer location to see the next 7 days of passes ≥ 10°. The values pass through the URL so the page stays shareable.

No JS? Fill the form by hand. The geolocation button needs JavaScript.